Flag for Germany Weather past 2 weeks in Erkrath, North Rhine-Westphalia, Germany

Now
54 °F

Sprinkles. Partly cloudy.


Feels Like: 51 °F
Forecast: 45 / 53 °F
Wind: 8 mph from South

Location: Duesseldorf

Current Time: Apr 26, 2015 at 3:43:07 AM

Latest Report: Apr 26, 2015 at 3:20 AM


Visibility: N/A

Pressure: 29.74 "Hg

Humidity: 94%

Dew point: 52 °F

Location of ErkrathLocation

Historic Weather in Erkrath — Graph

°F

Erkrath temperature yesterday

Maximum temperature yesterday: 63 °F (at 12:20 AM)
Minimum temperature yesterday: 52 °F (at 9:20 AM)
Average temperature yesterday: 56 °F

Past Weeks' High & Low Weather Summary

 TemperatureHumidityPressure
High75 °F (Apr 15, 3:20 PM)100% (Apr 23, 6:20 AM)30.48 "Hg (Apr 23, 6:20 AM)
Low36 °F (Apr 18, 4:50 AM)23% (Apr 21, 3:20 PM)29.74 "Hg (Apr 25, 3:20 PM)
Average53 °F63%30.17 "Hg
* Reported Apr 11 2:20 AM — Apr 26 2:20 AM, Erkrath, Weather by CustomWeather, © 2015

Note: Actual official high and low records may vary slightly from our data, if they occured in-between our weather recording intervals... More about our weather records

Advertising

Erkrath weather history for previous 24 hours

 ConditionsComfort  
Time TempWeatherWind HumidityBarometerVisibility
2:20 AM
Sun, Apr 26
54 °FSprinkles. Partly cloudy.7 mph94%29.77 "HgN/A
1:50 AM54 °FRain showers. Partly cloudy.13 mph88%29.77 "HgN/A
1:20 AM54 °FPartly cloudy.8 mph88%29.77 "HgN/A
12:50 AM52 °FClear.8 mph94%29.77 "Hg10 mi
12:20 AM52 °FClear.7 mph94%29.77 "Hg10 mi
11:50 PM
Sat, Apr 25
54 °FClear.7 mph88%29.77 "Hg10 mi
11:20 PM54 °FClear.7 mph88%29.77 "Hg10 mi
10:50 PM55 °FClear.7 mph82%29.77 "Hg10 mi
10:20 PM55 °FPassing clouds.8 mph88%29.77 "HgN/A
9:50 PM55 °FPassing clouds.6 mph88%29.77 "HgN/A
9:20 PM55 °FScattered clouds.6 mph88%29.77 "HgN/A
8:50 PM57 °FScattered clouds.6 mph77%29.77 "HgN/A
8:20 PM57 °FPartly sunny.3 mph82%29.74 "HgN/A
7:50 PM57 °FBroken clouds.3 mph82%29.74 "HgN/A
7:20 PM59 °FBroken clouds.5 mph77%29.74 "HgN/A
6:50 PM57 °FBroken clouds.8 mph82%29.74 "HgN/A
6:20 PM57 °FBroken clouds.7 mph88%29.74 "HgN/A
5:50 PM57 °FRain showers. Broken clouds.8 mph82%29.74 "HgN/A
5:20 PM59 °FLight rain. Partly sunny.10 mph77%29.74 "HgN/A
4:50 PM59 °FPartly sunny.8 mph77%29.74 "HgN/A
4:20 PM57 °FSprinkles. Partly sunny.7 mph82%29.74 "HgN/A
3:50 PM57 °FScattered showers. Broken clouds.7 mph82%29.74 "HgN/A
3:20 PM57 °FSprinkles. Broken clouds.8 mph88%29.74 "Hg5 mi
2:50 PM59 °FLight rain. Mostly cloudy.8 mph77%29.77 "Hg6 mi
2:20 PM57 °FLight rain. Broken clouds.8 mph82%29.77 "Hg6 mi
1:50 PM57 °FLight rain. Cloudy.7 mph82%29.77 "Hg6 mi
1:20 PM57 °FLight rain. Cloudy.8 mph88%29.77 "Hg6 mi
12:50 PM57 °FLight rain. Cloudy.7 mph82%29.77 "Hg6 mi
12:20 PM57 °FLight rain. Cloudy.6 mph82%29.77 "Hg5 mi
11:50 AM55 °FLight rain. More clouds than sun.8 mph82%29.77 "HgN/A
11:20 AM55 °FMostly cloudy.7 mph82%29.80 "HgN/A
10:50 AM54 °FLight rain. Broken clouds.7 mph88%29.80 "Hg6 mi
10:20 AM54 °FLight rain. Broken clouds.8 mph88%29.80 "Hg6 mi
9:50 AM52 °FLight rain. Partly sunny.6 mph94%29.80 "Hg5 mi
9:20 AM52 °FLight rain. Partly sunny.9 mph94%29.80 "Hg5 mi
8:50 AM54 °FLight rain. Partly sunny.7 mph88%29.80 "Hg4 mi
8:20 AM54 °FLight rain. Broken clouds.6 mph88%29.77 "Hg4 mi
7:50 AM54 °FLight rain. Broken clouds.1 mph82%29.77 "Hg4 mi
7:20 AM54 °FLight rain. Partly sunny.5 mph82%29.77 "Hg6 mi
6:50 AM54 °FLight rain. Passing clouds.8 mph82%29.80 "Hg4 mi
6:20 AM55 °FLight rain. Passing clouds.7 mph72%29.77 "Hg6 mi
5:20 AM54 °FClear.2 mph88%29.77 "Hg10 mi
4:50 AM55 °FClear.3 mph77%29.77 "Hg10 mi
4:20 AM55 °FClear.1 mph82%29.77 "Hg10 mi
3:50 AM57 °FClear.2 mph77%29.80 "Hg10 mi
3:20 AM57 °FClear.3 mph82%29.80 "Hg10 mi
Weather by CustomWeather, © 2015

See weather overviewHow to use our weather pages